Time,TemperatureF,DewpointF,PressureIn,WindDirection,WindDirectionDegrees,WindSpeedMPH,WindSpeedGustMPH,Humidity,HourlyPrecipIn,Conditions,Clouds,dailyrainin,SoftwareType,DateUTC
2013-03-28 00:00:00,42.7,33.7,30.27,West,270,0.0,0.0,70,0.00,,,0.00,WUHU216HW,2013-03-28 04:00:00,
2013-03-28 00:05:00,42.5,33.9,30.27,West,270,0.0,0.0,71,0.00,,,0.00,WUHU216HW,2013-03-28 04:05:00,
2013-03-28 00:10:00,42.5,33.5,30.27,West,270,0.0,0.0,70,0.00,,,0.00,WUHU216HW,2013-03-28 04:10:00,
2013-03-28 00:15:00,42.3,33.3,30.27,West,270,0.0,0.0,70,0.00,,,0.00,WUHU216HW,2013-03-28 04:15:00,
2013-03-28 00:20:00,42.5,33.5,30.26,West,270,0.0,0.0,70,0.00,,,0.00,WUHU216HW,2013-03-28 04:20:00,
2013-03-28 00:25:00,42.5,33.5,30.26,West,270,0.0,0.0,70,0.00,,,0.00,WUHU216HW,2013-03-28 04:25:00,
2013-03-28 00:30:00,42.3,33.7,30.26,West,270,0.0,0.0,71,0.00,,,0.00,WUHU216HW,2013-03-28 04:30:00,
2013-03-28 00:35:00,42.3,33.7,30.26,West,270,0.0,0.0,71,0.00,,,0.00,WUHU216HW,2013-03-28 04:35:00,
2013-03-28 00:40:00,42.1,33.5,30.26,WNW,293,0.0,0.0,71,0.00,,,0.00,WUHU216HW,2013-03-28 04:40:00,
2013-03-28 00:45:00,41.9,33.3,30.26,WNW,293,0.0,0.0,71,0.00,,,0.00,WUHU216HW,2013-03-28 04:45:00,
2013-03-28 00:50:00,41.8,33.1,30.26,WNW,293,0.0,0.0,71,0.00,,,0.00,WUHU216HW,2013-03-28 04:50:00,
2013-03-28 00:55:00,41.6,33.0,30.26,WNW,293,0.0,0.0,71,0.00,,,0.00,WUHU216HW,2013-03-28 04:55:00,
2013-03-28 01:00:00,41.4,32.8,30.26,WNW,293,0.0,0.0,71,0.00,,,0.00,WUHU216HW,2013-03-28 05:00:00,
2013-03-28 01:05:00,41.4,32.8,30.26,WNW,293,0.0,0.0,71,0.00,,,0.00,WUHU216HW,2013-03-28 05:05:00,
2013-03-28 01:10:00,41.4,33.0,30.26,WNW,293,0.9,0.9,72,0.00,,,0.00,WUHU216HW,2013-03-28 05:10:00,
2013-03-28 01:16:00,41.4,33.0,30.26,WNW,293,0.0,0.9,72,0.00,,,0.00,WUHU216HW,2013-03-28 05:16:00,
2013-03-28 01:21:00,41.4,33.0,30.26,WNW,293,0.0,0.7,72,0.00,,,0.00,WUHU216HW,2013-03-28 05:21:00,
2013-03-28 01:26:00,41.2,32.9,30.25,WNW,293,0.0,0.0,72,0.00,,,0.00,WUHU216HW,2013-03-28 05:26:00,
2013-03-28 01:31:00,41.0,33.0,30.26,WNW,293,0.0,0.0,73,0.00,,,0.00,WUHU216HW,2013-03-28 05:31:00,
2013-03-28 01:36:00,41.0,33.0,30.25,WNW,293,0.0,0.0,73,0.00,,,0.00,WUHU216HW,2013-03-28 05:36:00,
2013-03-28 01:41:00,40.7,32.7,30.25,WNW,293,0.0,0.0,73,0.00,,,0.00,WUHU216HW,2013-03-28 05:41:00,
2013-03-28 01:46:00,40.7,33.0,30.26,WNW,293,0.0,0.0,74,0.00,,,0.00,WUHU216HW,2013-03-28 05:46:00,
2013-03-28 01:51:00,40.5,32.9,30.26,WNW,293,0.0,0.0,74,0.00,,,0.00,WUHU216HW,2013-03-28 05:51:00,
2013-03-28 01:56:00,40.3,32.9,30.26,WNW,293,0.0,0.0,75,0.00,,,0.00,WUHU216HW,2013-03-28 05:56:00,
2013-03-28 02:01:00,40.3,32.9,30.26,WNW,293,0.0,0.0,75,0.00,,,0.00,WUHU216HW,2013-03-28 06:01:00,
2013-03-28 02:06:00,40.1,32.8,30.26,WNW,293,0.0,0.0,75,0.00,,,0.00,WUHU216HW,2013-03-28 06:06:00,
2013-03-28 02:11:00,40.1,33.1,30.26,WNW,293,0.0,0.0,76,0.00,,,0.00,WUHU216HW,2013-03-28 06:11:00,
2013-03-28 02:16:00,40.1,33.1,30.26,WNW,293,0.7,0.9,76,0.00,,,0.00,WUHU216HW,2013-03-28 06:16:00,
2013-03-28 02:21:00,40.1,33.1,30.27,WNW,293,0.0,0.9,76,0.00,,,0.00,WUHU216HW,2013-03-28 06:21:00,
2013-03-28 02:26:00,40.0,32.9,30.27,WNW,293,0.0,0.4,76,0.00,,,0.00,WUHU216HW,2013-03-28 06:26:00,
2013-03-28 02:31:00,40.0,32.9,30.26,NNW,338,0.0,0.0,76,0.00,,,0.00,WUHU216HW,2013-03-28 06:31:00,
2013-03-28 02:36:00,39.6,32.9,30.26,North,0,0.0,0.0,77,0.00,,,0.00,WUHU216HW,2013-03-28 06:36:00,
2013-03-28 02:41:00,39.6,32.9,30.26,North,0,0.0,0.0,77,0.00,,,0.00,WUHU216HW,2013-03-28 06:41:00,
2013-03-28 02:46:00,39.6,32.9,30.26,North,0,0.0,0.0,77,0.00,,,0.00,WUHU216HW,2013-03-28 06:46:00,
2013-03-28 02:51:00,39.6,32.9,30.26,North,0,0.0,0.0,77,0.00,,,0.00,WUHU216HW,2013-03-28 06:51:00,
2013-03-28 02:56:00,39.4,32.8,30.26,West,270,0.0,0.0,77,0.00,,,0.00,WUHU216HW,2013-03-28 06:56:00,
2013-03-28 03:01:00,39.4,33.1,30.26,NNE,23,0.0,0.0,78,0.00,,,0.00,WUHU216HW,2013-03-28 07:01:00,
2013-03-28 03:06:00,39.4,33.1,30.26,NNE,23,0.0,0.0,78,0.00,,,0.00,WUHU216HW,2013-03-28 07:06:00,
2013-03-28 03:11:00,39.4,33.1,30.26,West,270,0.0,0.0,78,0.00,,,0.00,WUHU216HW,2013-03-28 07:11:00,
2013-03-28 03:16:00,39.2,32.9,30.26,West,270,0.0,0.0,78,0.00,,,0.00,WUHU216HW,2013-03-28 07:16:00,
2013-03-28 03:21:00,39.2,32.9,30.26,West,270,0.0,0.0,78,0.00,,,0.00,WUHU216HW,2013-03-28 07:21:00,
2013-03-28 03:26:00,39.2,32.9,30.26,West,270,0.0,0.0,78,0.00,,,0.00,WUHU216HW,2013-03-28 07:26:00,
2013-03-28 03:31:00,39.1,32.8,30.26,West,270,0.0,0.0,78,0.00,,,0.00,WUHU216HW,2013-03-28 07:31:00,
2013-03-28 03:36:00,38.9,32.6,30.26,West,270,0.0,0.0,78,0.00,,,0.00,WUHU216HW,2013-03-28 07:36:00,
2013-03-28 03:41:00,38.9,32.6,30.25,West,270,0.0,0.0,78,0.00,,,0.00,WUHU216HW,2013-03-28 07:41:00,
2013-03-28 03:46:00,38.7,32.8,30.25,West,270,0.0,0.0,79,0.00,,,0.00,WUHU216HW,2013-03-28 07:46:00,
2013-03-28 03:51:00,38.7,32.8,30.25,West,270,0.0,0.0,79,0.00,,,0.00,WUHU216HW,2013-03-28 07:51:00,
2013-03-28 03:56:00,38.7,32.8,30.25,West,270,0.0,0.0,79,0.00,,,0.00,WUHU216HW,2013-03-28 07:56:00,
2013-03-28 04:01:00,38.5,32.6,30.25,West,270,0.0,0.0,79,0.00,,,0.00,WUHU216HW,2013-03-28 08:01:00,
2013-03-28 04:06:00,38.5,32.6,30.25,West,270,0.0,0.0,79,0.00,,,0.00,WUHU216HW,2013-03-28 08:06:00,
2013-03-28 04:11:00,38.3,32.1,30.26,West,270,0.0,0.0,78,0.00,,,0.00,WUHU216HW,2013-03-28 08:11:00,
2013-03-28 04:16:00,38.3,32.4,30.25,West,270,0.7,0.7,79,0.00,,,0.00,WUHU216HW,2013-03-28 08:16:00,
2013-03-28 04:21:00,38.3,32.4,30.25,West,270,0.0,0.7,79,0.00,,,0.00,WUHU216HW,2013-03-28 08:21:00,
2013-03-28 04:26:00,38.2,32.2,30.25,West,270,0.0,0.4,79,0.00,,,0.00,WUHU216HW,2013-03-28 08:26:00,
2013-03-28 04:31:00,38.2,32.2,30.25,West,270,0.2,0.7,79,0.00,,,0.00,WUHU216HW,2013-03-28 08:31:00,
2013-03-28 04:36:00,38.2,32.2,30.25,West,270,0.0,0.7,79,0.00,,,0.00,WUHU216HW,2013-03-28 08:36:00,
2013-03-28 04:41:00,38.0,32.4,30.25,NE,45,0.2,0.2,80,0.00,,,0.00,WUHU216HW,2013-03-28 08:41:00,
2013-03-28 04:46:00,37.8,32.2,30.25,NE,45,0.0,0.2,80,0.00,,,0.00,WUHU216HW,2013-03-28 08:46:00,
2013-03-28 04:51:00,37.8,32.2,30.25,NE,45,0.0,0.0,80,0.00,,,0.00,WUHU216HW,2013-03-28 08:51:00,
2013-03-28 04:56:00,37.8,32.2,30.25,NE,45,0.0,0.0,80,0.00,,,0.00,WUHU216HW,2013-03-28 08:56:00,
2013-03-28 05:01:00,37.8,32.2,30.26,NE,45,0.0,0.0,80,0.00,,,0.00,WUHU216HW,2013-03-28 09:01:00,
2013-03-28 05:06:00,37.8,32.2,30.25,West,270,0.4,0.7,80,0.00,,,0.00,WUHU216HW,2013-03-28 09:06:00,
2013-03-28 05:12:00,37.8,32.2,30.25,West,270,0.0,0.7,80,0.00,,,0.00,WUHU216HW,2013-03-28 09:12:00,
2013-03-28 05:17:00,37.8,32.5,30.25,NNE,23,0.0,0.4,81,0.00,,,0.00,WUHU216HW,2013-03-28 09:17:00,
2013-03-28 05:22:00,37.6,32.3,30.25,NNE,23,0.0,0.4,81,0.00,,,0.00,WUHU216HW,2013-03-28 09:22:00,
2013-03-28 05:27:00,37.6,32.3,30.25,NNW,338,0.0,0.2,81,0.00,,,0.00,WUHU216HW,2013-03-28 09:27:00,
2013-03-28 05:32:00,37.6,32.3,30.25,North,0,0.0,0.0,81,0.00,,,0.00,WUHU216HW,2013-03-28 09:32:00,
2013-03-28 05:37:00,37.6,32.3,30.25,NNW,338,0.0,0.0,81,0.00,,,0.00,WUHU216HW,2013-03-28 09:37:00,
2013-03-28 05:42:00,37.6,32.3,30.25,NW,315,0.0,0.2,81,0.00,,,0.00,WUHU216HW,2013-03-28 09:42:00,
2013-03-28 05:47:00,37.4,32.1,30.26,NW,315,0.0,0.2,81,0.00,,,0.00,WUHU216HW,2013-03-28 09:47:00,
2013-03-28 05:52:00,37.4,32.1,30.25,NW,315,0.0,0.0,81,0.00,,,0.00,WUHU216HW,2013-03-28 09:52:00,
2013-03-28 05:57:00,37.4,32.1,30.25,West,270,0.7,0.7,81,0.00,,,0.00,WUHU216HW,2013-03-28 09:57:00,
2013-03-28 06:02:00,37.6,32.3,30.26,West,270,0.0,0.9,81,0.00,,,0.00,WUHU216HW,2013-03-28 10:02:00,
2013-03-28 06:07:00,37.4,32.1,30.26,West,270,0.0,0.9,81,0.00,,,0.00,WUHU216HW,2013-03-28 10:07:00,
2013-03-28 06:12:00,37.4,32.1,30.26,WNW,293,0.4,0.4,81,0.00,,,0.00,WUHU216HW,2013-03-28 10:12:00,
2013-03-28 06:17:00,37.4,32.4,30.26,West,270,0.4,1.1,82,0.00,,,0.00,WUHU216HW,2013-03-28 10:17:00,
2013-03-28 06:22:00,37.4,32.4,30.26,West,270,0.2,1.1,82,0.00,,,0.00,WUHU216HW,2013-03-28 10:22:00,
2013-03-28 06:27:00,37.4,32.4,30.26,West,270,0.0,0.4,82,0.00,,,0.00,WUHU216HW,2013-03-28 10:27:00,
2013-03-28 06:32:00,37.4,32.4,30.26,WNW,293,0.0,0.4,82,0.00,,,0.00,WUHU216HW,2013-03-28 10:32:00,
2013-03-28 06:37:00,37.6,32.6,30.27,WNW,293,0.0,0.4,82,0.00,,,0.00,WUHU216HW,2013-03-28 10:37:00,
2013-03-28 06:42:00,37.6,32.6,30.27,WNW,293,0.0,0.0,82,0.00,,,0.00,WUHU216HW,2013-03-28 10:42:00,
2013-03-28 06:47:00,37.6,32.6,30.27,WNW,293,0.0,0.4,82,0.00,,,0.00,WUHU216HW,2013-03-28 10:47:00,
2013-03-28 06:52:00,37.4,32.4,30.27,WNW,293,0.2,0.4,82,0.00,,,0.00,WUHU216HW,2013-03-28 10:52:00,
2013-03-28 06:57:00,37.4,32.4,30.28,WNW,293,0.7,0.7,82,0.00,,,0.00,WUHU216HW,2013-03-28 10:57:00,
2013-03-28 07:02:00,37.4,32.4,30.28,WNW,293,0.0,0.7,82,0.00,,,0.00,WUHU216HW,2013-03-28 11:02:00,
2013-03-28 07:07:00,37.4,32.4,30.28,WNW,293,0.0,0.0,82,0.00,,,0.00,WUHU216HW,2013-03-28 11:07:00,
2013-03-28 07:12:00,37.4,32.4,30.29,NNW,338,0.0,0.0,82,0.00,,,0.00,WUHU216HW,2013-03-28 11:12:00,
2013-03-28 07:17:00,37.3,32.2,30.29,NNW,338,0.0,0.0,82,0.00,,,0.00,WUHU216HW,2013-03-28 11:17:00,
2013-03-28 07:22:00,37.3,32.2,30.29,NW,315,0.0,0.0,82,0.00,,,0.00,WUHU216HW,2013-03-28 11:22:00,
2013-03-28 07:27:00,37.3,32.2,30.29,NW,315,0.0,0.0,82,0.00,,,0.00,WUHU216HW,2013-03-28 11:27:00,
2013-03-28 07:32:00,37.3,32.2,30.29,NW,315,0.0,0.0,82,0.00,,,0.00,WUHU216HW,2013-03-28 11:32:00,
2013-03-28 07:37:00,37.1,32.0,30.29,NW,315,0.0,0.0,82,0.00,,,0.00,WUHU216HW,2013-03-28 11:37:00,
2013-03-28 07:42:00,37.3,32.2,30.29,NW,315,0.0,0.0,82,0.00,,,0.00,WUHU216HW,2013-03-28 11:42:00,
2013-03-28 07:47:00,37.3,32.6,30.29,WNW,293,0.7,0.7,83,0.00,,,0.00,WUHU216HW,2013-03-28 11:47:00,
2013-03-28 07:52:00,37.6,33.0,30.29,WNW,293,0.0,0.7,83,0.00,,,0.00,WUHU216HW,2013-03-28 11:52:00,
2013-03-28 07:57:00,37.6,33.0,30.30,WNW,293,0.4,0.4,83,0.00,,,0.00,WUHU216HW,2013-03-28 11:57:00,
2013-03-28 08:02:00,37.6,33.0,30.30,West,270,0.0,0.4,83,0.00,,,0.00,WUHU216HW,2013-03-28 12:02:00,
2013-03-28 08:07:00,37.8,33.1,30.29,West,270,0.0,0.2,83,0.00,,,0.00,WUHU216HW,2013-03-28 12:07:00,
2013-03-28 08:12:00,38.2,33.5,30.29,WNW,293,0.0,0.0,83,0.00,,,0.00,WUHU216HW,2013-03-28 12:12:00,
2013-03-28 08:17:00,38.5,33.9,30.29,NNW,338,0.4,0.4,83,0.00,,,0.00,WUHU216HW,2013-03-28 12:17:00,
2013-03-28 08:22:00,39.2,34.6,30.29,NNW,338,0.0,0.7,83,0.00,,,0.00,WUHU216HW,2013-03-28 12:22:00,
2013-03-28 08:27:00,39.6,34.8,30.30,WNW,293,0.4,0.7,83,0.00,,,0.00,WUHU216HW,2013-03-28 12:27:00,
2013-03-28 08:32:00,40.0,34.9,30.29,WNW,293,0.0,0.7,82,0.00,,,0.00,WUHU216HW,2013-03-28 12:32:00,
2013-03-28 08:37:00,40.3,35.6,30.30,NW,315,0.0,0.4,83,0.00,,,0.00,WUHU216HW,2013-03-28 12:37:00,
2013-03-28 08:42:00,40.9,35.7,30.30,NW,315,0.0,0.2,82,0.00,,,0.00,WUHU216HW,2013-03-28 12:42:00,
2013-03-28 08:47:00,41.2,35.7,30.30,NNW,338,0.4,0.4,81,0.00,,,0.00,WUHU216HW,2013-03-28 12:47:00,
2013-03-28 08:52:00,42.1,36.6,30.30,North,0,0.4,1.1,81,0.00,,,0.00,WUHU216HW,2013-03-28 12:52:00,
2013-03-28 08:57:00,43.2,37.1,30.30,NNW,338,0.4,1.1,79,0.00,,,0.00,WUHU216HW,2013-03-28 12:57:00,
2013-03-28 09:02:00,43.7,37.0,30.30,North,0,0.9,1.3,77,0.00,,,0.00,WUHU216HW,2013-03-28 13:02:00,
2013-03-28 09:07:00,43.9,37.2,30.30,North,0,1.6,1.6,77,0.00,,,0.00,WUHU216HW,2013-03-28 13:07:00,
2013-03-28 09:12:00,44.3,36.8,30.30,North,0,1.1,2.0,75,0.00,,,0.00,WUHU216HW,2013-03-28 13:12:00,
2013-03-28 09:17:00,45.0,37.2,30.31,North,0,1.8,2.0,74,0.00,,,0.00,WUHU216HW,2013-03-28 13:17:00,
2013-03-28 09:22:00,45.7,36.9,30.31,North,0,2.0,3.4,71,0.00,,,0.00,WUHU216HW,2013-03-28 13:22:00,
2013-03-28 09:27:00,46.4,38.0,30.31,NE,45,1.1,3.4,72,0.00,,,0.00,WUHU216HW,2013-03-28 13:27:00,
2013-03-28 09:32:00,47.5,38.3,30.31,North,0,1.6,3.1,70,0.00,,,0.00,WUHU216HW,2013-03-28 13:32:00,
2013-03-28 09:37:00,49.0,38.8,30.31,North,0,1.1,3.1,68,0.00,,,0.00,WUHU216HW,2013-03-28 13:37:00,
2013-03-28 09:42:00,49.7,39.2,30.31,North,0,1.3,3.1,67,0.00,,,0.00,WUHU216HW,2013-03-28 13:42:00,
2013-03-28 09:47:00,50.2,38.9,30.31,NE,45,2.9,2.9,65,0.00,,,0.00,WUHU216HW,2013-03-28 13:47:00,
2013-03-28 09:52:00,50.8,39.4,30.31,NNW,338,1.8,3.4,65,0.00,,,0.00,WUHU216HW,2013-03-28 13:52:00,
2013-03-28 09:57:00,50.8,38.6,30.31,NE,45,2.2,3.4,63,0.00,,,0.00,WUHU216HW,2013-03-28 13:57:00,
2013-03-28 10:02:00,50.6,37.6,30.31,NE,45,2.0,5.4,61,0.00,,,0.00,WUHU216HW,2013-03-28 14:02:00,
2013-03-28 10:07:00,51.7,39.4,30.31,NNW,338,0.4,5.4,63,0.00,,,0.00,WUHU216HW,2013-03-28 14:07:00,
2013-03-28 10:12:00,54.2,40.1,30.32,NNE,23,2.2,3.4,59,0.00,,,0.00,WUHU216HW,2013-03-28 14:12:00,
2013-03-28 10:17:00,55.1,39.1,30.32,North,0,2.2,3.4,55,0.00,,,0.00,WUHU216HW,2013-03-28 14:17:00,
2013-03-28 10:22:00,55.4,39.0,30.32,North,0,2.2,2.7,54,0.00,,,0.00,WUHU216HW,2013-03-28 14:22:00,
2013-03-28 10:27:00,56.7,40.7,30.32,NNE,23,1.6,2.2,55,0.00,,,0.00,WUHU216HW,2013-03-28 14:27:00,
2013-03-28 10:33:00,56.3,38.9,30.32,ENE,68,2.9,2.9,52,0.00,,,0.00,WUHU216HW,2013-03-28 14:33:00,
2013-03-28 10:38:00,54.7,37.4,30.32,NE,45,1.8,2.9,52,0.00,,,0.00,WUHU216HW,2013-03-28 14:38:00,
2013-03-28 10:43:00,55.1,37.7,30.33,ENE,68,1.6,3.4,52,0.00,,,0.00,WUHU216HW,2013-03-28 14:43:00,
2013-03-28 10:48:00,55.1,37.7,30.33,SW,225,4.9,4.9,52,0.00,,,0.00,WUHU216HW,2013-03-28 14:48:00,
2013-03-28 10:53:00,54.9,37.5,30.33,East,90,2.0,4.9,52,0.00,,,0.00,WUHU216HW,2013-03-28 14:53:00,
2013-03-28 10:58:00,54.9,37.5,30.33,WNW,293,0.9,2.7,52,0.00,,,0.00,WUHU216HW,2013-03-28 14:58:00,
2013-03-28 11:03:00,55.6,38.2,30.33,West,270,1.8,6.3,52,0.00,,,0.00,WUHU216HW,2013-03-28 15:03:00,
2013-03-28 11:08:00,56.3,38.9,30.32,North,0,1.8,6.3,52,0.00,,,0.00,WUHU216HW,2013-03-28 15:08:00,
2013-03-28 11:13:00,56.3,38.0,30.33,NE,45,3.8,3.8,50,0.00,,,0.00,WUHU216HW,2013-03-28 15:13:00,
2013-03-28 11:18:00,56.0,36.5,30.32,NE,45,4.0,4.3,48,0.00,,,0.00,WUHU216HW,2013-03-28 15:18:00,
2013-03-28 11:23:00,56.7,36.6,30.33,NE,45,2.5,4.3,47,0.00,,,0.00,WUHU216HW,2013-03-28 15:23:00,
2013-03-28 11:28:00,58.3,38.7,30.33,SSW,203,0.4,3.1,48,0.00,,,0.00,WUHU216HW,2013-03-28 15:28:00,
2013-03-28 11:33:00,61.0,40.0,30.33,ENE,68,2.2,2.7,46,0.00,,,0.00,WUHU216HW,2013-03-28 15:33:00,
2013-03-28 11:38:00,63.0,40.1,30.33,North,0,3.4,3.4,43,0.00,,,0.00,WUHU216HW,2013-03-28 15:38:00,
2013-03-28 11:43:00,63.9,39.7,30.33,North,0,2.7,4.9,41,0.00,,,0.00,WUHU216HW,2013-03-28 15:43:00,
2013-03-28 11:48:00,64.3,40.1,30.33,West,270,5.6,5.6,41,0.00,,,0.00,WUHU216HW,2013-03-28 15:48:00,
2013-03-28 11:53:00,64.4,36.7,30.33,North,0,3.4,5.6,36,0.00,,,0.00,WUHU216HW,2013-03-28 15:53:00,
2013-03-28 11:58:00,64.3,36.5,30.33,NNE,23,2.5,4.7,36,0.00,,,0.00,WUHU216HW,2013-03-28 15:58:00,
2013-03-28 12:03:00,64.1,37.8,30.32,NNE,23,2.0,4.7,38,0.00,,,0.00,WUHU216HW,2013-03-28 16:03:00,
2013-03-28 12:08:00,64.4,38.2,30.32,NNE,23,3.4,4.5,38,0.00,,,0.00,WUHU216HW,2013-03-28 16:08:00,
2013-03-28 12:13:00,64.3,35.1,30.32,NE,45,4.0,8.1,34,0.00,,,0.00,WUHU216HW,2013-03-28 16:13:00,
2013-03-28 12:18:00,64.4,37.4,30.32,NNE,23,1.1,8.1,37,0.00,,,0.00,WUHU216HW,2013-03-28 16:18:00,
2013-03-28 12:23:00,65.7,38.6,30.31,North,0,2.7,3.8,37,0.00,,,0.00,WUHU216HW,2013-03-28 16:23:00,
2013-03-28 12:28:00,66.2,36.9,30.31,NE,45,4.3,5.6,34,0.00,,,0.00,WUHU216HW,2013-03-28 16:28:00,
2013-03-28 12:33:00,65.9,36.5,30.31,NE,45,3.6,5.6,34,0.00,,,0.00,WUHU216HW,2013-03-28 16:33:00,
2013-03-28 12:38:00,65.7,35.7,30.31,NE,45,0.7,5.1,33,0.00,,,0.00,WUHU216HW,2013-03-28 16:38:00,
2013-03-28 12:43:00,66.2,36.9,30.31,North,0,2.5,5.1,34,0.00,,,0.00,WUHU216HW,2013-03-28 16:43:00,
2013-03-28 12:48:00,67.0,37.5,30.31,SW,225,2.0,4.0,34,0.00,,,0.00,WUHU216HW,2013-03-28 16:48:00,
2013-03-28 12:53:00,67.5,37.3,30.31,NNE,23,2.9,5.1,33,0.00,,,0.00,WUHU216HW,2013-03-28 16:53:00,
2013-03-28 12:58:00,67.9,38.3,30.31,NW,315,1.8,5.1,34,0.00,,,0.00,WUHU216HW,2013-03-28 16:58:00,
2013-03-28 13:03:00,67.9,34.3,30.30,NNE,23,3.6,6.3,29,0.00,,,0.00,WUHU216HW,2013-03-28 17:03:00,
2013-03-28 13:08:00,68.0,35.5,30.30,NNW,338,2.2,6.3,30,0.00,,,0.00,WUHU216HW,2013-03-28 17:08:00,
2013-03-28 13:13:00,67.9,33.3,30.30,North,0,3.6,5.4,28,0.00,,,0.00,WUHU216HW,2013-03-28 17:13:00,
2013-03-28 13:18:00,67.9,36.1,30.30,NNW,338,1.3,5.4,31,0.00,,,0.00,WUHU216HW,2013-03-28 17:18:00,
2013-03-28 13:23:00,68.4,36.6,30.30,NNE,23,0.9,5.4,31,0.00,,,0.00,WUHU216HW,2013-03-28 17:23:00,
2013-03-28 13:28:00,68.4,34.8,30.30,North,0,2.5,5.4,29,0.00,,,0.00,WUHU216HW,2013-03-28 17:28:00,
2013-03-28 13:33:00,68.2,35.7,30.30,NE,45,1.8,6.3,30,0.00,,,0.00,WUHU216HW,2013-03-28 17:33:00,
2013-03-28 13:38:00,68.4,35.8,30.29,North,0,2.2,6.3,30,0.00,,,0.00,WUHU216HW,2013-03-28 17:38:00,
2013-03-28 13:43:00,68.4,35.8,30.29,North,0,2.2,6.3,30,0.00,,,0.00,WUHU216HW,2013-03-28 17:43:00,
2013-03-28 13:48:00,68.0,35.5,30.29,ENE,68,4.5,6.3,30,0.00,,,0.00,WUHU216HW,2013-03-28 17:48:00,
2013-03-28 13:53:00,68.4,35.8,30.29,ENE,68,1.8,4.7,30,0.00,,,0.00,WUHU216HW,2013-03-28 17:53:00,
2013-03-28 13:58:00,68.0,33.5,30.29,ENE,68,3.6,3.6,28,0.00,,,0.00,WUHU216HW,2013-03-28 17:58:00,
2013-03-28 14:03:00,68.0,31.5,30.29,NE,45,2.2,3.8,26,0.00,,,0.00,WUHU216HW,2013-03-28 18:03:00,
2013-03-28 14:08:00,68.4,35.8,30.29,NNW,338,1.6,4.7,30,0.00,,,0.00,WUHU216HW,2013-03-28 18:08:00,
2013-03-28 14:13:00,68.9,36.3,30.29,NNW,338,3.1,5.6,30,0.00,,,0.00,WUHU216HW,2013-03-28 18:13:00,
2013-03-28 14:18:00,69.1,37.2,30.29,West,270,1.8,5.6,31,0.00,,,0.00,WUHU216HW,2013-03-28 18:18:00,
2013-03-28 14:23:00,69.1,35.5,30.29,WSW,248,4.7,7.2,29,0.00,,,0.00,WUHU216HW,2013-03-28 18:23:00,
2013-03-28 14:28:00,68.6,35.9,30.28,North,0,3.8,8.3,30,0.00,,,0.00,WUHU216HW,2013-03-28 18:28:00,
2013-03-28 14:33:00,68.8,35.1,30.28,North,0,0.4,8.3,29,0.00,,,0.00,WUHU216HW,2013-03-28 18:33:00,
2013-03-28 14:38:00,68.2,34.7,30.28,North,0,2.5,4.3,29,0.00,,,0.00,WUHU216HW,2013-03-28 18:38:00,
2013-03-28 14:43:00,68.0,34.5,30.27,West,270,4.7,6.7,29,0.00,,,0.00,WUHU216HW,2013-03-28 18:43:00,
2013-03-28 14:48:00,68.2,33.7,30.27,South,180,4.0,6.7,28,0.00,,,0.00,WUHU216HW,2013-03-28 18:48:00,
2013-03-28 14:53:00,68.6,34.9,30.27,NNW,338,1.8,4.5,29,0.00,,,0.00,WUHU216HW,2013-03-28 18:53:00,
2013-03-28 14:58:00,68.8,35.1,30.26,WSW,248,4.5,5.8,29,0.00,,,0.00,WUHU216HW,2013-03-28 18:58:00,
2013-03-28 15:03:00,68.9,35.3,30.26,WSW,248,9.8,9.8,29,0.00,,,0.00,WUHU216HW,2013-03-28 19:03:00,
2013-03-28 15:08:00,68.8,35.1,30.26,NNE,23,0.4,9.8,29,0.00,,,0.00,WUHU216HW,2013-03-28 19:08:00,
2013-03-28 15:13:00,68.8,35.1,30.25,South,180,2.7,9.8,29,0.00,,,0.00,WUHU216HW,2013-03-28 19:13:00,
2013-03-28 15:18:00,69.1,35.5,30.25,WNW,293,8.5,8.5,29,0.00,,,0.00,WUHU216HW,2013-03-28 19:18:00,
2013-03-28 15:23:00,69.3,35.6,30.25,NW,315,2.5,9.8,29,0.00,,,0.00,WUHU216HW,2013-03-28 19:23:00,
2013-03-28 15:28:00,69.1,35.5,30.25,West,270,3.1,9.8,29,0.00,,,0.00,WUHU216HW,2013-03-28 19:28:00,
2013-03-28 15:33:00,69.1,34.5,30.25,NNW,338,1.1,5.4,28,0.00,,,0.00,WUHU216HW,2013-03-28 19:33:00,
2013-03-28 15:38:00,69.1,34.5,30.24,NNE,23,2.9,3.6,28,0.00,,,0.00,WUHU216HW,2013-03-28 19:38:00,
2013-03-28 15:43:00,68.4,32.8,30.24,SSW,203,0.7,3.4,27,0.00,,,0.00,WUHU216HW,2013-03-28 19:43:00,
2013-03-28 15:48:00,68.4,34.8,30.24,NNE,23,2.2,3.6,29,0.00,,,0.00,WUHU216HW,2013-03-28 19:48:00,
2013-03-28 15:53:00,68.2,31.7,30.24,WSW,248,4.3,6.9,26,0.00,,,0.00,WUHU216HW,2013-03-28 19:53:00,
2013-03-28 15:58:00,68.0,35.5,30.24,NNW,338,2.5,6.9,30,0.00,,,0.00,WUHU216HW,2013-03-28 19:58:00,
2013-03-28 16:03:00,68.4,35.8,30.23,West,270,5.8,6.9,30,0.00,,,0.00,WUHU216HW,2013-03-28 20:03:00,
2013-03-28 16:08:00,68.4,34.8,30.23,West,270,5.4,6.9,29,0.00,,,0.00,WUHU216HW,2013-03-28 20:08:00,
2013-03-28 16:13:00,68.4,34.8,30.23,WSW,248,4.5,5.4,29,0.00,,,0.00,WUHU216HW,2013-03-28 20:13:00,
2013-03-28 16:18:00,68.0,34.5,30.24,WNW,293,0.9,5.4,29,0.00,,,0.00,WUHU216HW,2013-03-28 20:18:00,
2013-03-28 16:23:00,67.9,34.3,30.23,NE,45,3.4,8.1,29,0.00,,,0.00,WUHU216HW,2013-03-28 20:23:00,
2013-03-28 16:28:00,67.3,33.9,30.23,NE,45,3.8,8.1,29,0.00,,,0.00,WUHU216HW,2013-03-28 20:28:00,
2013-03-28 16:33:00,67.3,34.9,30.23,West,270,4.5,5.4,30,0.00,,,0.00,WUHU216HW,2013-03-28 20:33:00,
2013-03-28 16:38:00,67.1,33.8,30.22,SSE,158,0.4,5.4,29,0.00,,,0.00,WUHU216HW,2013-03-28 20:38:00,
2013-03-28 16:43:00,67.0,34.6,30.22,WSW,248,2.0,5.1,30,0.00,,,0.00,WUHU216HW,2013-03-28 20:43:00,
2013-03-28 16:48:00,67.0,34.6,30.22,East,90,1.8,6.3,30,0.00,,,0.00,WUHU216HW,2013-03-28 20:48:00,
2013-03-28 16:53:00,66.8,34.5,30.22,North,0,0.9,6.3,30,0.00,,,0.00,WUHU216HW,2013-03-28 20:53:00,
2013-03-28 16:58:00,66.6,34.3,30.22,NNE,23,0.9,3.4,30,0.00,,,0.00,WUHU216HW,2013-03-28 20:58:00,
2013-03-28 17:03:00,66.6,34.3,30.22,NW,315,0.7,5.8,30,0.00,,,0.00,WUHU216HW,2013-03-28 21:03:00,
2013-03-28 17:08:00,66.4,34.2,30.22,NW,315,3.1,5.8,30,0.00,,,0.00,WUHU216HW,2013-03-28 21:08:00,
2013-03-28 17:13:00,66.2,34.0,30.21,WSW,248,2.5,6.9,30,0.00,,,0.00,WUHU216HW,2013-03-28 21:13:00,
2013-03-28 17:18:00,65.9,33.7,30.21,East,90,1.1,6.9,30,0.00,,,0.00,WUHU216HW,2013-03-28 21:18:00,
2013-03-28 17:23:00,65.9,34.4,30.21,NNW,338,2.0,4.9,31,0.00,,,0.00,WUHU216HW,2013-03-28 21:23:00,
2013-03-28 17:28:00,65.7,33.6,30.22,NNW,338,0.9,6.0,30,0.00,,,0.00,WUHU216HW,2013-03-28 21:28:00,
2013-03-28 17:33:00,65.2,33.0,30.22,NW,315,2.5,6.0,30,0.00,,,0.00,WUHU216HW,2013-03-28 21:33:00,
2013-03-28 17:38:00,64.8,32.8,30.22,North,0,1.6,2.5,30,0.00,,,0.00,WUHU216HW,2013-03-28 21:38:00,
2013-03-28 17:43:00,64.8,32.8,30.22,North,0,0.4,2.0,30,0.00,,,0.00,WUHU216HW,2013-03-28 21:43:00,
2013-03-28 17:48:00,64.6,33.3,30.22,NE,45,1.1,2.0,31,0.00,,,0.00,WUHU216HW,2013-03-28 21:48:00,
2013-03-28 17:53:00,64.6,33.3,30.22,NNW,338,1.6,4.5,31,0.00,,,0.00,WUHU216HW,2013-03-28 21:53:00,
2013-03-28 17:58:00,64.4,33.1,30.22,SE,135,1.6,4.9,31,0.00,,,0.00,WUHU216HW,2013-03-28 21:58:00,
2013-03-28 18:03:00,64.3,32.9,30.21,NNW,338,1.8,4.9,31,0.00,,,0.00,WUHU216HW,2013-03-28 22:03:00,
2013-03-28 18:08:00,64.1,32.0,30.22,NNW,338,0.9,2.9,30,0.00,,,0.00,WUHU216HW,2013-03-28 22:08:00,
2013-03-28 18:13:00,63.7,32.5,30.21,NNW,338,1.6,2.9,31,0.00,,,0.00,WUHU216HW,2013-03-28 22:13:00,
2013-03-28 18:18:00,63.7,32.5,30.22,WNW,293,3.4,3.4,31,0.00,,,0.00,WUHU216HW,2013-03-28 22:18:00,
2013-03-28 18:23:00,63.5,32.3,30.22,North,0,1.8,3.4,31,0.00,,,0.00,WUHU216HW,2013-03-28 22:23:00,
2013-03-28 18:28:00,63.5,33.0,30.22,SSW,203,0.7,3.4,32,0.00,,,0.00,WUHU216HW,2013-03-28 22:28:00,
2013-03-28 18:33:00,63.4,32.9,30.22,NE,45,0.7,3.4,32,0.00,,,0.00,WUHU216HW,2013-03-28 22:33:00,
2013-03-28 18:38:00,63.0,32.6,30.22,South,180,0.4,1.6,32,0.00,,,0.00,WUHU216HW,2013-03-28 22:38:00,
2013-03-28 18:43:00,63.0,32.6,30.22,NE,45,0.7,1.6,32,0.00,,,0.00,WUHU216HW,2013-03-28 22:43:00,
2013-03-28 18:48:00,62.6,32.2,30.23,NNE,23,0.4,0.9,32,0.00,,,0.00,WUHU216HW,2013-03-28 22:48:00,
2013-03-28 18:53:00,62.5,32.8,30.23,NE,45,0.2,0.9,33,0.00,,,0.00,WUHU216HW,2013-03-28 22:53:00,
2013-03-28 18:58:00,62.3,32.6,30.23,ENE,68,0.7,1.1,33,0.00,,,0.00,WUHU216HW,2013-03-28 22:58:00,
2013-03-28 19:03:00,61.9,32.3,30.23,NNE,23,0.2,1.1,33,0.00,,,0.00,WUHU216HW,2013-03-28 23:03:00,
2013-03-28 19:08:00,61.7,32.1,30.23,NNE,23,0.0,0.4,33,0.00,,,0.00,WUHU216HW,2013-03-28 23:08:00,
2013-03-28 19:13:00,61.7,32.9,30.23,NNE,23,0.0,0.0,34,0.00,,,0.00,WUHU216HW,2013-03-28 23:13:00,
2013-03-28 19:18:00,61.4,32.5,30.23,NNE,23,0.0,0.0,34,0.00,,,0.00,WUHU216HW,2013-03-28 23:18:00,
2013-03-28 19:23:00,61.0,32.2,30.24,NNE,23,0.0,0.0,34,0.00,,,0.00,WUHU216HW,2013-03-28 23:23:00,
2013-03-28 19:28:00,60.8,32.8,30.24,NNE,23,0.0,0.0,35,0.00,,,0.00,WUHU216HW,2013-03-28 23:28:00,
2013-03-28 19:33:00,60.5,33.2,30.24,NNE,23,0.0,0.0,36,0.00,,,0.00,WUHU216HW,2013-03-28 23:33:00,
2013-03-28 19:38:00,60.3,33.0,30.24,NNE,23,0.0,0.0,36,0.00,,,0.00,WUHU216HW,2013-03-28 23:38:00,
2013-03-28 19:43:00,59.8,33.3,30.24,NNE,23,0.0,0.0,37,0.00,,,0.00,WUHU216HW,2013-03-28 23:43:00,
2013-03-28 19:48:00,59.4,33.7,30.24,NNE,23,0.0,0.0,38,0.00,,,0.00,WUHU216HW,2013-03-28 23:48:00,
2013-03-28 19:53:00,58.9,33.2,30.24,NNE,23,0.0,0.0,38,0.00,,,0.00,WUHU216HW,2013-03-28 23:53:00,
2013-03-28 19:58:00,58.5,33.6,30.24,NNE,23,0.0,0.0,39,0.00,,,0.00,WUHU216HW,2013-03-28 23:58:00,
2013-03-28 20:03:00,58.3,33.4,30.24,SW,225,0.4,0.9,39,0.00,,,0.00,WUHU216HW,2013-03-29 00:03:00,
2013-03-28 20:08:00,57.8,34.7,30.24,SW,225,0.0,0.9,42,0.00,,,0.00,WUHU216HW,2013-03-29 00:08:00,
2013-03-28 20:13:00,57.2,34.8,30.24,SW,225,0.0,0.9,43,0.00,,,0.00,WUHU216HW,2013-03-29 00:13:00,
2013-03-28 20:18:00,56.7,34.9,30.24,SW,225,0.0,0.0,44,0.00,,,0.00,WUHU216HW,2013-03-29 00:18:00,
2013-03-28 20:23:00,56.2,35.0,30.24,SW,225,0.0,0.0,45,0.00,,,0.00,WUHU216HW,2013-03-29 00:23:00,
2013-03-28 20:28:00,56.0,35.4,30.25,SW,225,0.0,0.0,46,0.00,,,0.00,WUHU216HW,2013-03-29 00:28:00,
2013-03-28 20:33:00,55.6,35.6,30.25,SW,225,0.0,0.0,47,0.00,,,0.00,WUHU216HW,2013-03-29 00:33:00,
2013-03-28 20:38:00,55.1,35.1,30.25,SW,225,0.0,0.0,47,0.00,,,0.00,WUHU216HW,2013-03-29 00:38:00,
2013-03-28 20:43:00,54.7,35.3,30.25,SW,225,0.0,0.0,48,0.00,,,0.00,WUHU216HW,2013-03-29 00:43:00,
2013-03-28 20:48:00,54.5,35.7,30.25,SW,225,0.0,0.0,49,0.00,,,0.00,WUHU216HW,2013-03-29 00:48:00,
2013-03-28 20:53:00,54.2,35.4,30.25,SW,225,0.0,0.0,49,0.00,,,0.00,WUHU216HW,2013-03-29 00:53:00,
2013-03-28 20:58:00,53.8,35.7,30.25,SW,225,0.0,0.0,50,0.00,,,0.00,WUHU216HW,2013-03-29 00:58:00,
2013-03-28 21:03:00,53.5,35.3,30.26,SW,225,0.0,0.0,50,0.00,,,0.00,WUHU216HW,2013-03-29 01:03:00,
2013-03-28 21:08:00,53.1,35.5,30.26,SW,225,0.0,0.0,51,0.00,,,0.00,WUHU216HW,2013-03-29 01:08:00,
2013-03-28 21:13:00,52.7,35.1,30.26,SW,225,0.0,0.0,51,0.00,,,0.00,WUHU216HW,2013-03-29 01:13:00,
2013-03-28 21:18:00,52.4,35.3,30.26,SW,225,0.0,0.0,52,0.00,,,0.00,WUHU216HW,2013-03-29 01:18:00,
2013-03-28 21:23:00,52.2,35.6,30.27,SW,225,0.0,0.0,53,0.00,,,0.00,WUHU216HW,2013-03-29 01:23:00,
2013-03-28 21:28:00,51.8,35.6,30.27,SW,225,0.0,0.0,54,0.00,,,0.00,WUHU216HW,2013-03-29 01:28:00,
2013-03-28 21:33:00,51.5,35.3,30.27,SW,225,0.0,0.0,54,0.00,,,0.00,WUHU216HW,2013-03-29 01:33:00,
2013-03-28 21:38:00,51.3,35.7,30.27,SW,225,0.0,0.0,55,0.00,,,0.00,WUHU216HW,2013-03-29 01:38:00,
2013-03-28 21:43:00,50.9,35.7,30.28,SW,225,0.0,0.0,56,0.00,,,0.00,WUHU216HW,2013-03-29 01:43:00,
2013-03-28 21:48:00,50.8,35.6,30.27,SW,225,0.0,0.0,56,0.00,,,0.00,WUHU216HW,2013-03-29 01:48:00,
2013-03-28 21:53:00,50.6,35.8,30.27,SW,225,0.0,0.0,57,0.00,,,0.00,WUHU216HW,2013-03-29 01:53:00,
2013-03-28 21:58:00,50.0,35.4,30.28,SW,225,0.0,0.0,57,0.00,,,0.00,WUHU216HW,2013-03-29 01:58:00,
2013-03-28 22:03:00,49.9,35.6,30.28,SW,225,0.0,0.0,58,0.00,,,0.00,WUHU216HW,2013-03-29 02:03:00,
2013-03-28 22:09:00,49.7,35.9,30.28,SW,225,0.0,0.0,59,0.00,,,0.00,WUHU216HW,2013-03-29 02:09:00,
2013-03-28 22:14:00,49.5,35.8,30.28,SW,225,0.0,0.0,59,0.00,,,0.00,WUHU216HW,2013-03-29 02:14:00,
2013-03-28 22:19:00,49.3,36.1,30.28,SW,225,0.0,0.0,60,0.00,,,0.00,WUHU216HW,2013-03-29 02:19:00,
2013-03-28 22:24:00,49.3,36.5,30.28,SW,225,0.0,0.0,61,0.00,,,0.00,WUHU216HW,2013-03-29 02:24:00,
2013-03-28 22:29:00,49.1,36.3,30.28,SW,225,0.0,0.0,61,0.00,,,0.00,WUHU216HW,2013-03-29 02:29:00,
2013-03-28 22:34:00,49.0,36.6,30.28,SW,225,0.0,0.0,62,0.00,,,0.00,WUHU216HW,2013-03-29 02:34:00,
2013-03-28 22:39:00,48.6,36.2,30.29,SW,225,0.0,0.0,62,0.00,,,0.00,WUHU216HW,2013-03-29 02:39:00,
2013-03-28 22:44:00,48.2,35.8,30.29,SW,225,0.0,0.0,62,0.00,,,0.00,WUHU216HW,2013-03-29 02:44:00,
2013-03-28 22:49:00,47.9,35.9,30.29,SW,225,0.0,0.0,63,0.00,,,0.00,WUHU216HW,2013-03-29 02:49:00,
2013-03-28 22:54:00,47.9,35.9,30.29,SW,225,0.0,0.0,63,0.00,,,0.00,WUHU216HW,2013-03-29 02:54:00,
2013-03-28 22:59:00,47.7,36.1,30.28,SW,225,0.0,0.0,64,0.00,,,0.00,WUHU216HW,2013-03-29 02:59:00,
2013-03-28 23:04:00,47.7,36.5,30.29,SW,225,0.0,0.0,65,0.00,,,0.00,WUHU216HW,2013-03-29 03:04:00,
2013-03-28 23:09:00,47.7,36.9,30.29,SW,225,0.0,0.0,66,0.00,,,0.00,WUHU216HW,2013-03-29 03:09:00,
2013-03-28 23:14:00,47.5,37.1,30.29,SW,225,0.0,0.0,67,0.00,,,0.00,WUHU216HW,2013-03-29 03:14:00,
2013-03-28 23:19:00,47.2,36.7,30.29,SW,225,0.0,0.0,67,0.00,,,0.00,WUHU216HW,2013-03-29 03:19:00,
2013-03-28 23:24:00,47.2,36.7,30.29,SW,225,0.0,0.0,67,0.00,,,0.00,WUHU216HW,2013-03-29 03:24:00,
2013-03-28 23:29:00,47.2,37.2,30.29,SW,225,0.0,0.0,68,0.00,,,0.00,WUHU216HW,2013-03-29 03:29:00,
2013-03-28 23:34:00,47.0,37.0,30.29,SW,225,0.0,0.0,68,0.00,,,0.00,WUHU216HW,2013-03-29 03:34:00,
2013-03-28 23:39:00,46.8,36.8,30.29,SW,225,0.0,0.0,68,0.00,,,0.00,WUHU216HW,2013-03-29 03:39:00,
2013-03-28 23:44:00,46.8,37.2,30.29,SW,225,0.0,0.0,69,0.00,,,0.00,WUHU216HW,2013-03-29 03:44:00,
2013-03-28 23:49:00,46.8,37.6,30.29,WSW,248,0.7,0.9,70,0.00,,,0.00,WUHU216HW,2013-03-29 03:49:00,
2013-03-28 23:54:00,46.6,37.5,30.29,WSW,248,0.4,1.1,70,0.00,,,0.00,WUHU216HW,2013-03-29 03:54:00,
2013-03-28 23:59:00,46.4,37.3,30.29,WSW,248,0.0,1.1,70,0.00,,,0.00,WUHU216HW,2013-03-29 03:59:00,